IGO6946 VISR-VOBL

Flight info

Callsign IGO6946
Flight time 3h 16m
Altitude 39000
Route SGR W21 PANLA W23 BIKUX DCT PK DCT CHG J21 DPN/N0443F380 Q23 AKRIB/N0444F390 Z16 BULDI W19 BPL/N0376F250 J3 UPTAR/N0434F330 W20 TAMID/N0377F250 J3 HIA/N0449F390 Q21 LURGI/N0449F380 Q21 TELUV TELUV7E
Aircraft A20N/M-SDE2E3FGHIRWXY/LB1

Departure

Time 2026-04-23 07:53
Airport Sheikh ul Alam International Airport (VISR)

Arrival

Time 2026-04-23 11:10
Airport Kempegowda International Airport Bengaluru (VOBL)
Time Latitude Longitude Altitude Speed Heading
2026-04-23 07:34 34.00093 74.76218 5408 ft 0 kts 13°
2026-04-23 07:43 34.00088 74.76216 5408 ft 2 kts 13°
2026-04-23 07:44 34.00074 74.76211 5408 ft 2 kts 13°
2026-04-23 07:44 34.00059 74.76208 5409 ft 2 kts 13°
2026-04-23 07:44 34.00044 74.76204 5409 ft 2 kts 13°
2026-04-23 07:44 34.00031 74.76200 5409 ft 0 kts 13°
2026-04-23 07:45 34.00019 74.76198 5410 ft 2 kts 346°
2026-04-23 07:45 34.00006 74.76206 5410 ft 2 kts 310°
2026-04-23 07:45 34.00000 74.76222 5410 ft 0 kts 275°
2026-04-23 07:45 34.00000 74.76230 5410 ft 1 kts 267°
2026-04-23 07:46 34.00000 74.76233 5410 ft 0 kts 269°
2026-04-23 07:48 34.00000 74.76232 5409 ft 0 kts 269°
2026-04-23 07:49 34.00000 74.76229 5410 ft 0 kts 268°
2026-04-23 07:49 34.00001 74.76195 5410 ft 6 kts 277°
2026-04-23 07:49 34.00013 74.76141 5410 ft 6 kts 288°
2026-04-23 07:50 34.00023 74.76082 5410 ft 6 kts 252°
2026-04-23 07:50 33.99987 74.76041 5411 ft 5 kts 210°
2026-04-23 07:50 33.99965 74.76041 5413 ft 1 kts 167°
2026-04-23 07:50 33.99963 74.76041 5413 ft 0 kts 167°
2026-04-23 07:51 33.99954 74.76045 5413 ft 2 kts 164°
2026-04-23 07:52 33.99925 74.76052 5415 ft 5 kts 174°
2026-04-23 07:52 33.99881 74.76056 5419 ft 7 kts 173°
2026-04-23 07:52 33.99830 74.76088 5422 ft 10 kts 135°
2026-04-23 07:52 33.99722 74.76215 5421 ft 49 kts 136°
2026-04-23 07:53 33.99302 74.76702 5426 ft 116 kts 136°
2026-04-23 07:53 33.98582 74.77535 5445 ft 169 kts 136°
2026-04-23 07:53 33.97674 74.78582 5757 ft 187 kts 138°
2026-04-23 07:53 33.96686 74.79626 6340 ft 192 kts 136°
2026-04-23 07:54 33.95628 74.80603 6981 ft 195 kts 158°
2026-04-23 07:54 33.94267 74.80877 7474 ft 207 kts 178°
2026-04-23 07:54 33.92755 74.80899 7895 ft 226 kts 179°
2026-04-23 07:54 33.91085 74.80936 8298 ft 249 kts 178°
2026-04-23 07:55 33.89303 74.81036 8675 ft 265 kts 176°
2026-04-23 07:55 33.87376 74.81196 9003 ft 282 kts 175°
2026-04-23 07:55 33.85370 74.81392 9446 ft 294 kts 174°
2026-04-23 07:55 33.83281 74.81612 10113 ft 298 kts 174°
2026-04-23 07:56 33.81125 74.81848 10640 ft 308 kts 174°
2026-04-23 07:56 33.78942 74.82087 11296 ft 312 kts 174°
2026-04-23 07:56 33.76795 74.82324 11997 ft 313 kts 174°
2026-04-23 07:56 33.74607 74.82567 12711 ft 314 kts 174°
2026-04-23 07:57 33.72434 74.82808 13443 ft 316 kts 174°
2026-04-23 07:57 33.70232 74.83051 14190 ft 318 kts 175°
2026-04-23 07:57 33.68034 74.83335 14920 ft 320 kts 172°
2026-04-23 07:57 33.65818 74.83787 15461 ft 329 kts 169°
2026-04-23 07:58 33.63560 74.84325 16011 ft 336 kts 169°
2026-04-23 07:58 33.61253 74.84882 16684 ft 340 kts 169°
2026-04-23 07:58 33.58902 74.85450 17353 ft 342 kts 169°
2026-04-23 07:58 33.56565 74.86018 18010 ft 345 kts 169°
2026-04-23 07:59 33.54216 74.86588 18639 ft 347 kts 169°
2026-04-23 07:59 33.51841 74.87163 19225 ft 351 kts 169°
2026-04-23 07:59 33.49439 74.87743 19791 ft 354 kts 169°
2026-04-23 07:59 33.47024 74.88326 20305 ft 357 kts 169°
2026-04-23 08:00 33.45058 74.88801 20743 ft 359 kts 169°
2026-04-23 08:00 33.42574 74.89401 21278 ft 362 kts 170°
2026-04-23 08:00 33.40115 74.89994 21821 ft 365 kts 169°
2026-04-23 08:00 33.37618 74.90652 22344 ft 368 kts 165°
2026-04-23 08:01 33.35187 74.91677 22869 ft 373 kts 158°
2026-04-23 08:01 33.32858 74.93121 23416 ft 377 kts 150°
2026-04-23 08:01 33.30614 74.94786 23956 ft 381 kts 149°
2026-04-23 08:01 33.28377 74.96490 24466 ft 384 kts 149°
2026-04-23 08:02 33.26104 74.98222 24978 ft 387 kts 149°
2026-04-23 08:02 33.23836 74.99940 25475 ft 390 kts 149°
2026-04-23 08:02 33.21522 75.01688 25965 ft 393 kts 149°
2026-04-23 08:02 33.19196 75.03439 26446 ft 396 kts 150°
2026-04-23 08:03 33.16831 75.05215 26922 ft 399 kts 149°
2026-04-23 08:03 33.14490 75.06977 27377 ft 402 kts 149°
2026-04-23 08:03 33.12110 75.08779 27807 ft 405 kts 149°
2026-04-23 08:03 33.09725 75.10589 28189 ft 409 kts 149°
2026-04-23 08:04 33.07277 75.12446 28591 ft 412 kts 149°
2026-04-23 08:04 33.04721 75.14383 29000 ft 415 kts 150°
2026-04-23 08:04 33.02138 75.16338 29393 ft 418 kts 149°
2026-04-23 08:04 32.99497 75.18333 29775 ft 420 kts 149°
2026-04-23 08:05 32.96954 75.20253 30131 ft 423 kts 149°
2026-04-23 08:05 32.94461 75.22134 30473 ft 425 kts 149°
2026-04-23 08:05 32.91965 75.24020 30810 ft 426 kts 149°
2026-04-23 08:05 32.89424 75.25936 31133 ft 428 kts 149°
2026-04-23 08:06 32.86887 75.27840 31427 ft 430 kts 149°
2026-04-23 08:06 32.84362 75.29732 31721 ft 432 kts 149°
2026-04-23 08:06 32.81801 75.31653 32032 ft 433 kts 149°
2026-04-23 08:06 32.79225 75.33587 32421 ft 433 kts 149°
2026-04-23 08:07 32.76725 75.35465 32815 ft 431 kts 149°
2026-04-23 08:07 32.74151 75.37401 33197 ft 430 kts 149°
2026-04-23 08:07 32.71616 75.39304 33571 ft 429 kts 149°
2026-04-23 08:07 32.69038 75.41241 33974 ft 428 kts 149°
2026-04-23 08:08 32.66520 75.43130 34372 ft 426 kts 149°
2026-04-23 08:08 32.63995 75.45021 34745 ft 425 kts 149°
2026-04-23 08:08 32.61439 75.46919 35104 ft 424 kts 150°
2026-04-23 08:08 32.58839 75.48652 35416 ft 423 kts 154°
2026-04-23 08:09 32.56099 75.50230 35660 ft 423 kts 158°
2026-04-23 08:09 32.53347 75.51578 35871 ft 424 kts 161°
2026-04-23 08:09 32.50557 75.52734 36086 ft 424 kts 163°
2026-04-23 08:09 32.47706 75.53869 36292 ft 426 kts 163°
2026-04-23 08:10 32.44929 75.54974 36481 ft 427 kts 163°
2026-04-23 08:10 32.42071 75.56112 36677 ft 428 kts 163°
2026-04-23 08:10 32.36420 75.58364 36912 ft 431 kts 163°
2026-04-23 08:11 32.30721 75.60629 36885 ft 431 kts 163°
2026-04-23 08:11 32.25071 75.63182 36850 ft 433 kts 157°
2026-04-23 08:12 32.19742 75.66455 36824 ft 434 kts 150°
2026-04-23 08:12 32.14629 75.70257 36836 ft 434 kts 149°
2026-04-23 08:13 32.09494 75.74080 36847 ft 434 kts 149°
2026-04-23 08:13 32.04376 75.77869 36829 ft 434 kts 149°
2026-04-23 08:14 31.99254 75.81652 36801 ft 435 kts 149°
2026-04-23 08:14 31.94106 75.85448 36799 ft 435 kts 149°
2026-04-23 08:15 31.88973 75.89225 36808 ft 435 kts 149°
2026-04-23 08:15 31.83809 75.93000 36822 ft 435 kts 149°
2026-04-23 08:16 31.78660 75.96766 36844 ft 436 kts 149°
2026-04-23 08:16 31.73509 76.00539 36862 ft 436 kts 149°
2026-04-23 08:17 31.68359 76.04307 36861 ft 436 kts 149°
2026-04-23 08:17 31.63178 76.08095 36853 ft 436 kts 149°
2026-04-23 08:18 31.58032 76.11852 36855 ft 437 kts 149°
2026-04-23 08:18 31.52855 76.15627 36831 ft 437 kts 149°
2026-04-23 08:19 31.47724 76.19363 36828 ft 438 kts 149°
2026-04-23 08:19 31.42545 76.23129 36830 ft 438 kts 149°
2026-04-23 08:20 31.37366 76.26890 36837 ft 437 kts 149°
2026-04-23 08:20 31.32193 76.30642 36843 ft 438 kts 149°
2026-04-23 08:21 31.27004 76.34400 36839 ft 438 kts 149°
2026-04-23 08:21 31.21811 76.38158 36827 ft 438 kts 149°
2026-04-23 08:22 31.16598 76.41924 36835 ft 439 kts 149°
2026-04-23 08:22 31.11328 76.45727 36831 ft 439 kts 149°
2026-04-23 08:23 31.06067 76.49519 36832 ft 440 kts 149°
2026-04-23 08:23 31.00854 76.53271 36827 ft 439 kts 149°
2026-04-23 08:24 30.95601 76.57046 36838 ft 439 kts 149°
2026-04-23 08:24 30.90373 76.60800 36833 ft 439 kts 149°
2026-04-23 08:25 30.85158 76.64526 36829 ft 440 kts 149°
2026-04-23 08:25 30.79967 76.68255 36833 ft 439 kts 149°
2026-04-23 08:26 30.74704 76.71994 36827 ft 439 kts 152°
2026-04-23 08:26 30.69141 76.74892 36815 ft 437 kts 163°
2026-04-23 08:27 30.63247 76.76553 36817 ft 435 kts 174°
2026-04-23 08:27 30.57217 76.77034 36805 ft 434 kts 180°
2026-04-23 08:28 30.51165 76.77188 36797 ft 434 kts 180°
2026-04-23 08:28 30.45126 76.77347 36793 ft 433 kts 180°
2026-04-23 08:29 30.39081 76.77515 36791 ft 433 kts 180°
2026-04-23 08:29 30.33035 76.77685 36785 ft 434 kts 180°
2026-04-23 08:30 30.27030 76.77856 36776 ft 434 kts 180°
2026-04-23 08:30 30.20981 76.78028 36769 ft 434 kts 180°
2026-04-23 08:31 30.14930 76.78198 36765 ft 433 kts 180°
2026-04-23 08:31 30.08886 76.78370 36758 ft 433 kts 180°
2026-04-23 08:32 30.02865 76.78541 36751 ft 432 kts 180°
2026-04-23 08:32 29.96864 76.78711 36745 ft 432 kts 180°
2026-04-23 08:33 29.90824 76.78882 36742 ft 433 kts 180°
2026-04-23 08:33 29.84788 76.79050 36747 ft 433 kts 180°
2026-04-23 08:34 29.78717 76.79219 36752 ft 433 kts 180°
2026-04-23 08:34 29.72655 76.79391 36751 ft 433 kts 180°
2026-04-23 08:35 29.66620 76.79569 36749 ft 432 kts 180°
2026-04-23 08:35 29.60617 76.79743 36747 ft 431 kts 180°
2026-04-23 08:36 29.54631 76.79915 36741 ft 431 kts 180°
2026-04-23 08:36 29.48621 76.80088 36737 ft 431 kts 180°
2026-04-23 08:37 29.42610 76.80259 36741 ft 432 kts 181°
2026-04-23 08:37 29.36569 76.80431 36740 ft 432 kts 180°
2026-04-23 08:38 29.30506 76.80605 36741 ft 431 kts 181°
2026-04-23 08:38 29.24447 76.80776 36744 ft 431 kts 181°
2026-04-23 08:39 29.18453 76.80947 36743 ft 430 kts 181°
2026-04-23 08:39 29.12408 76.81119 36741 ft 430 kts 181°
2026-04-23 08:40 29.06403 76.81290 36742 ft 430 kts 181°
2026-04-23 08:40 29.00407 76.81459 36740 ft 430 kts 181°
2026-04-23 08:41 28.94393 76.81628 36740 ft 431 kts 181°
2026-04-23 08:41 28.88394 76.81795 36738 ft 431 kts 181°
2026-04-23 08:42 28.82386 76.81962 36745 ft 430 kts 181°
2026-04-23 08:42 28.76413 76.81899 36752 ft 429 kts 183°
2026-04-23 08:43 28.70454 76.81812 36760 ft 429 kts 183°
2026-04-23 08:43 28.64430 76.81722 36764 ft 430 kts 183°
2026-04-23 08:44 28.58431 76.81634 36762 ft 430 kts 183°
2026-04-23 08:44 28.52438 76.81543 36761 ft 430 kts 183°
2026-04-23 08:45 28.46410 76.81452 36756 ft 430 kts 183°
2026-04-23 08:45 28.40454 76.81363 36761 ft 430 kts 183°
2026-04-23 08:46 28.34437 76.81271 36758 ft 429 kts 183°
2026-04-23 08:46 28.28485 76.81183 36756 ft 429 kts 183°
2026-04-23 08:47 28.22476 76.81093 36761 ft 430 kts 183°
2026-04-23 08:47 28.16504 76.81005 36762 ft 430 kts 183°
2026-04-23 08:48 28.10481 76.80917 36761 ft 430 kts 183°
2026-04-23 08:48 28.04428 76.80827 36762 ft 429 kts 183°
2026-04-23 08:49 27.98429 76.80737 36767 ft 428 kts 183°
2026-04-23 08:49 27.92470 76.80648 36770 ft 428 kts 183°
2026-04-23 08:50 27.86434 76.80559 36769 ft 429 kts 183°
2026-04-23 08:50 27.80454 76.80473 36776 ft 429 kts 183°
2026-04-23 08:51 27.74488 76.80385 36773 ft 430 kts 183°
2026-04-23 08:51 27.68513 76.80297 36775 ft 430 kts 183°
2026-04-23 08:52 27.62515 76.80209 36772 ft 430 kts 183°
2026-04-23 08:52 27.56509 76.80119 36775 ft 429 kts 183°
2026-04-23 08:53 27.50529 76.80029 36781 ft 429 kts 183°
2026-04-23 08:53 27.44546 76.79941 36784 ft 429 kts 183°
2026-04-23 08:54 27.38546 76.80036 36786 ft 431 kts 180°
2026-04-23 08:54 27.32569 76.80306 36783 ft 431 kts 180°
2026-04-23 08:55 27.26548 76.80578 36785 ft 431 kts 180°
2026-04-23 08:55 27.20553 76.80846 36790 ft 431 kts 180°
2026-04-23 08:56 27.14558 76.81114 36788 ft 431 kts 180°
2026-04-23 08:56 27.08530 76.81383 36788 ft 431 kts 180°
2026-04-23 08:57 27.02516 76.81649 36785 ft 431 kts 180°
2026-04-23 08:57 26.96511 76.81916 36784 ft 431 kts 180°
2026-04-23 08:58 26.90532 76.82181 36784 ft 431 kts 180°
2026-04-23 08:58 26.84520 76.82446 36784 ft 431 kts 180°
2026-04-23 08:59 26.78489 76.82715 36782 ft 431 kts 180°
2026-04-23 08:59 26.72472 76.82980 36784 ft 431 kts 180°
2026-04-23 09:00 26.66460 76.83247 36785 ft 431 kts 180°
2026-04-23 09:00 26.60458 76.83511 36786 ft 431 kts 180°
2026-04-23 09:01 26.54460 76.83775 36787 ft 431 kts 180°
2026-04-23 09:01 26.48431 76.84040 36786 ft 431 kts 180°
2026-04-23 09:02 26.42443 76.84304 36784 ft 431 kts 180°
2026-04-23 09:02 26.36440 76.84567 36793 ft 431 kts 180°
2026-04-23 09:03 26.30443 76.84832 36803 ft 430 kts 180°
2026-04-23 09:03 26.24437 76.85094 36807 ft 430 kts 180°
2026-04-23 09:04 26.18454 76.85355 36809 ft 430 kts 180°
2026-04-23 09:04 26.12476 76.85618 36807 ft 430 kts 180°
2026-04-23 09:05 26.06503 76.85877 36807 ft 430 kts 180°
2026-04-23 09:05 26.00498 76.86140 36802 ft 430 kts 180°
2026-04-23 09:06 25.94513 76.86401 36799 ft 430 kts 180°
2026-04-23 09:06 25.88517 76.86662 36799 ft 430 kts 180°
2026-04-23 09:07 25.82505 76.86923 36793 ft 431 kts 180°
2026-04-23 09:07 25.76511 76.87185 36797 ft 431 kts 180°
2026-04-23 09:08 25.70510 76.87446 36800 ft 431 kts 180°
2026-04-23 09:08 25.64524 76.87704 36806 ft 431 kts 180°
2026-04-23 09:09 25.58525 76.87964 36808 ft 430 kts 180°
2026-04-23 09:09 25.52530 76.88225 36817 ft 430 kts 180°
2026-04-23 09:10 25.43563 76.88612 36813 ft 429 kts 180°
2026-04-23 09:11 25.37575 76.88872 36822 ft 430 kts 180°
2026-04-23 09:11 25.31592 76.89129 36820 ft 430 kts 180°
2026-04-23 09:12 25.25609 76.89387 36819 ft 430 kts 180°
2026-04-23 09:12 25.19579 76.89647 36822 ft 430 kts 180°
2026-04-23 09:13 25.13581 76.89903 36825 ft 430 kts 180°
2026-04-23 09:13 25.07608 76.90160 36822 ft 429 kts 180°
2026-04-23 09:14 25.01619 76.90417 36824 ft 429 kts 180°
2026-04-23 09:14 24.95641 76.90678 36830 ft 429 kts 180°
2026-04-23 09:15 24.89640 76.90944 36828 ft 429 kts 180°
2026-04-23 09:15 24.83676 76.91207 36830 ft 429 kts 180°
2026-04-23 09:16 24.77665 76.91470 36829 ft 429 kts 180°
2026-04-23 09:16 24.71721 76.91730 36831 ft 429 kts 180°
2026-04-23 09:17 24.65744 76.91992 36831 ft 428 kts 180°
2026-04-23 09:17 24.59746 76.92255 36834 ft 428 kts 180°
2026-04-23 09:18 24.53825 76.92513 36841 ft 427 kts 180°
2026-04-23 09:18 24.47855 76.92778 36842 ft 428 kts 179°
2026-04-23 09:19 24.41903 76.93494 36845 ft 429 kts 172°
2026-04-23 09:19 24.36077 76.94961 36846 ft 431 kts 166°
2026-04-23 09:20 24.30356 76.96997 36851 ft 432 kts 164°
2026-04-23 09:20 24.24656 76.99065 36853 ft 432 kts 164°
2026-04-23 09:21 24.18930 77.01141 36855 ft 432 kts 164°
2026-04-23 09:21 24.13175 77.03220 36856 ft 432 kts 164°
2026-04-23 09:22 24.07478 77.05276 36857 ft 431 kts 164°
2026-04-23 09:22 24.01777 77.07333 36855 ft 430 kts 164°
2026-04-23 09:23 23.96089 77.09383 36858 ft 430 kts 164°
2026-04-23 09:23 23.90402 77.11430 36859 ft 430 kts 165°
2026-04-23 09:24 23.84679 77.13481 36860 ft 431 kts 165°
2026-04-23 09:24 23.78963 77.15532 36847 ft 430 kts 165°
2026-04-23 09:25 23.73135 77.17619 36855 ft 430 kts 165°
2026-04-23 09:25 23.67229 77.19738 36854 ft 429 kts 165°
2026-04-23 09:26 23.61114 77.21929 36861 ft 428 kts 165°
2026-04-23 09:26 23.55051 77.24101 36861 ft 428 kts 165°
2026-04-23 09:27 23.49350 77.26141 36864 ft 428 kts 165°
2026-04-23 09:27 23.43691 77.28164 36866 ft 427 kts 165°
2026-04-23 09:28 23.38007 77.30194 36872 ft 428 kts 165°
2026-04-23 09:28 23.32346 77.32217 36866 ft 428 kts 165°
2026-04-23 09:29 23.26598 77.33956 36870 ft 425 kts 171°
2026-04-23 09:29 23.20776 77.35143 36865 ft 424 kts 173°
2026-04-23 09:30 23.14951 77.36290 36877 ft 424 kts 173°
2026-04-23 09:30 23.08942 77.37476 36871 ft 422 kts 173°
2026-04-23 09:31 23.02833 77.38680 36862 ft 422 kts 173°
2026-04-23 09:31 22.98225 77.39587 36871 ft 422 kts 173°
2026-04-23 09:32 22.92337 77.40748 36859 ft 422 kts 174°
2026-04-23 09:32 22.86473 77.41902 36852 ft 421 kts 174°
2026-04-23 09:33 22.80574 77.43059 36847 ft 421 kts 174°
2026-04-23 09:33 22.74815 77.44191 36843 ft 419 kts 174°
2026-04-23 09:34 22.68959 77.45338 36833 ft 420 kts 174°
2026-04-23 09:34 22.63058 77.46498 36826 ft 419 kts 174°
2026-04-23 09:35 22.57040 77.47676 36827 ft 419 kts 174°
2026-04-23 09:35 22.51142 77.48831 36820 ft 418 kts 174°
2026-04-23 09:36 22.45152 77.50005 36817 ft 418 kts 175°
2026-04-23 09:36 22.39016 77.51204 36822 ft 417 kts 175°
2026-04-23 09:37 22.33179 77.52348 36836 ft 416 kts 175°
2026-04-23 09:37 22.27147 77.53524 36843 ft 415 kts 175°
2026-04-23 09:38 22.21244 77.54678 36852 ft 416 kts 175°
2026-04-23 09:38 22.15335 77.55832 36861 ft 414 kts 175°
2026-04-23 09:39 22.09539 77.56957 36879 ft 414 kts 176°
2026-04-23 09:39 22.03686 77.58079 36901 ft 413 kts 176°
2026-04-23 09:40 21.97939 77.59184 36917 ft 412 kts 176°
2026-04-23 09:40 21.92009 77.60324 36914 ft 413 kts 176°
2026-04-23 09:41 21.86313 77.61417 36901 ft 413 kts 176°
2026-04-23 09:41 21.80633 77.62510 36893 ft 411 kts 176°
2026-04-23 09:42 21.74933 77.63605 36888 ft 409 kts 176°
2026-04-23 09:42 21.69045 77.64737 36896 ft 410 kts 176°
2026-04-23 09:43 21.63306 77.65857 36902 ft 408 kts 177°
2026-04-23 09:43 21.57540 77.66980 36921 ft 407 kts 177°
2026-04-23 09:44 21.51748 77.68094 36935 ft 407 kts 178°
2026-04-23 09:44 21.45946 77.69245 36930 ft 408 kts 177°
2026-04-23 09:45 21.40063 77.70436 36906 ft 407 kts 177°
2026-04-23 09:45 21.34291 77.71600 36876 ft 406 kts 177°
2026-04-23 09:46 21.28505 77.72765 36844 ft 406 kts 177°
2026-04-23 09:46 21.22834 77.73901 36809 ft 405 kts 177°
2026-04-23 09:47 21.17270 77.75019 36804 ft 404 kts 178°
2026-04-23 09:47 21.11711 77.76131 36793 ft 406 kts 178°
2026-04-23 09:48 21.06132 77.77247 36794 ft 405 kts 178°
2026-04-23 09:48 21.00560 77.78363 36790 ft 404 kts 178°
2026-04-23 09:49 20.94986 77.79477 36787 ft 403 kts 178°
2026-04-23 09:49 20.89464 77.80592 36789 ft 404 kts 178°
2026-04-23 09:50 20.83871 77.81760 36787 ft 402 kts 178°
2026-04-23 09:50 20.78262 77.82929 36790 ft 402 kts 178°
2026-04-23 09:51 20.72727 77.84081 36787 ft 401 kts 178°
2026-04-23 09:51 20.67147 77.85229 36792 ft 402 kts 178°
2026-04-23 09:52 20.61553 77.86311 36788 ft 400 kts 178°
2026-04-23 09:52 20.55664 77.87444 36786 ft 399 kts 178°
2026-04-23 09:53 20.49494 77.88634 36790 ft 397 kts 178°
2026-04-23 09:53 20.43559 77.89778 36795 ft 397 kts 178°
2026-04-23 09:54 20.37440 77.90960 36794 ft 396 kts 179°
2026-04-23 09:54 20.31441 77.92114 36791 ft 396 kts 179°
2026-04-23 09:55 20.25270 77.93303 36786 ft 397 kts 179°
2026-04-23 09:55 20.19296 77.94452 36791 ft 395 kts 179°
2026-04-23 09:56 20.13286 77.95606 36797 ft 396 kts 179°
2026-04-23 09:56 20.07269 77.96763 36797 ft 394 kts 179°
2026-04-23 09:57 20.01393 77.97894 36795 ft 392 kts 179°
2026-04-23 09:57 19.95349 77.99049 36789 ft 393 kts 179°
2026-04-23 09:58 19.89403 78.00187 36785 ft 393 kts 179°
2026-04-23 09:58 19.83355 78.01347 36782 ft 392 kts 179°
2026-04-23 09:59 19.77642 78.02441 36785 ft 393 kts 179°
2026-04-23 09:59 19.72187 78.03484 36788 ft 392 kts 179°
2026-04-23 10:00 19.66489 78.04573 36791 ft 393 kts 179°
2026-04-23 10:00 19.61066 78.05608 36792 ft 393 kts 179°
2026-04-23 10:01 19.55619 78.06649 36801 ft 392 kts 179°
2026-04-23 10:01 19.50103 78.07700 36802 ft 392 kts 179°
2026-04-23 10:02 19.44598 78.08752 36799 ft 391 kts 179°
2026-04-23 10:02 19.39151 78.09790 36796 ft 391 kts 179°
2026-04-23 10:03 19.33769 78.10815 36796 ft 390 kts 179°
2026-04-23 10:03 19.28357 78.11845 36795 ft 391 kts 179°
2026-04-23 10:04 19.22996 78.12762 36799 ft 388 kts 181°
2026-04-23 10:04 19.17555 78.13525 36804 ft 388 kts 181°
2026-04-23 10:05 19.12062 78.14295 36804 ft 388 kts 181°
2026-04-23 10:05 19.06618 78.15060 36793 ft 389 kts 181°
2026-04-23 10:06 19.00843 78.15869 36790 ft 387 kts 181°
2026-04-23 10:06 18.95322 78.16644 36788 ft 387 kts 181°
2026-04-23 10:07 18.89784 78.17419 36792 ft 388 kts 181°
2026-04-23 10:07 18.84388 78.18173 36800 ft 387 kts 181°
2026-04-23 10:08 18.78761 78.18959 36805 ft 388 kts 181°
2026-04-23 10:08 18.73165 78.19740 36808 ft 386 kts 181°
2026-04-23 10:09 18.64892 78.20895 36817 ft 387 kts 181°
2026-04-23 10:09 18.59032 78.21712 36818 ft 387 kts 181°
2026-04-23 10:10 18.53016 78.22549 36820 ft 387 kts 181°
2026-04-23 10:10 18.46984 78.23389 36826 ft 386 kts 181°
2026-04-23 10:11 18.40989 78.24223 36833 ft 388 kts 180°
2026-04-23 10:11 18.34966 78.25060 36841 ft 387 kts 181°
2026-04-23 10:12 18.29046 78.25882 36850 ft 386 kts 181°
2026-04-23 10:12 18.22925 78.26733 36855 ft 387 kts 181°
2026-04-23 10:13 18.17067 78.27545 36849 ft 387 kts 180°
2026-04-23 10:13 18.10980 78.28388 36852 ft 387 kts 180°
2026-04-23 10:14 18.05574 78.29140 36852 ft 387 kts 180°
2026-04-23 10:14 18.00202 78.29884 36850 ft 386 kts 180°
2026-04-23 10:15 17.94529 78.30668 36850 ft 387 kts 180°
2026-04-23 10:15 17.88604 78.31490 36850 ft 386 kts 180°
2026-04-23 10:16 17.82627 78.32314 36849 ft 387 kts 180°
2026-04-23 10:16 17.76598 78.33148 36854 ft 386 kts 180°
2026-04-23 10:17 17.70744 78.33956 36855 ft 387 kts 180°
2026-04-23 10:17 17.64929 78.34757 36855 ft 388 kts 180°
2026-04-23 10:18 17.59227 78.35543 36854 ft 388 kts 180°
2026-04-23 10:18 17.53649 78.36315 36851 ft 388 kts 180°
2026-04-23 10:19 17.48092 78.37081 36852 ft 388 kts 180°
2026-04-23 10:19 17.42533 78.37846 36855 ft 388 kts 180°
2026-04-23 10:20 17.37038 78.38603 36858 ft 388 kts 180°
2026-04-23 10:20 17.31445 78.39376 36858 ft 389 kts 180°
2026-04-23 10:21 17.25683 78.40168 36864 ft 389 kts 180°
2026-04-23 10:21 17.19872 78.40907 36867 ft 388 kts 181°
2026-04-23 10:22 17.13887 78.41530 36870 ft 387 kts 181°
2026-04-23 10:22 17.07970 78.42152 36870 ft 386 kts 181°
2026-04-23 10:23 17.02047 78.42783 36876 ft 387 kts 181°
2026-04-23 10:23 16.96143 78.43415 36878 ft 387 kts 181°
2026-04-23 10:24 16.90131 78.44059 36874 ft 387 kts 181°
2026-04-23 10:24 16.84226 78.44692 36869 ft 387 kts 181°
2026-04-23 10:25 16.78307 78.45327 36859 ft 387 kts 181°
2026-04-23 10:25 16.72146 78.45984 36851 ft 387 kts 181°
2026-04-23 10:26 16.66213 78.46619 36850 ft 387 kts 180°
2026-04-23 10:26 16.60115 78.47271 36843 ft 388 kts 181°
2026-04-23 10:27 16.54102 78.47913 36833 ft 388 kts 180°
2026-04-23 10:27 16.47983 78.48568 36826 ft 388 kts 180°
2026-04-23 10:28 16.41964 78.49212 36824 ft 388 kts 180°
2026-04-23 10:28 16.35981 78.49853 36826 ft 388 kts 180°
2026-04-23 10:29 16.29933 78.50500 36829 ft 388 kts 180°
2026-04-23 10:29 16.24169 78.50987 36834 ft 385 kts 184°
2026-04-23 10:30 16.17988 78.50822 36835 ft 381 kts 190°
2026-04-23 10:30 16.12167 78.50021 36828 ft 379 kts 193°
2026-04-23 10:31 16.06222 78.49077 36817 ft 379 kts 193°
2026-04-23 10:31 16.00421 78.48152 36802 ft 379 kts 193°
2026-04-23 10:32 15.94517 78.47205 36794 ft 379 kts 193°
2026-04-23 10:32 15.88827 78.46295 36791 ft 380 kts 193°
2026-04-23 10:33 15.83096 78.45383 36783 ft 380 kts 193°
2026-04-23 10:33 15.77240 78.44448 36781 ft 380 kts 193°
2026-04-23 10:34 15.71522 78.43534 36776 ft 380 kts 193°
2026-04-23 10:34 15.65576 78.42582 36778 ft 380 kts 193°
2026-04-23 10:35 15.59981 78.41689 36775 ft 380 kts 193°
2026-04-23 10:35 15.54288 78.40780 36769 ft 380 kts 193°
2026-04-23 10:36 15.48488 78.39854 36764 ft 380 kts 193°
2026-04-23 10:36 15.42666 78.38925 36758 ft 380 kts 193°
2026-04-23 10:37 15.36924 78.38010 36757 ft 380 kts 193°
2026-04-23 10:37 15.31117 78.37085 36758 ft 380 kts 192°
2026-04-23 10:38 15.25238 78.36150 36753 ft 381 kts 193°
2026-04-23 10:38 15.19552 78.35239 36749 ft 381 kts 193°
2026-04-23 10:39 15.13547 78.34274 36748 ft 381 kts 193°
2026-04-23 10:39 15.07808 78.33353 36750 ft 381 kts 192°
2026-04-23 10:40 15.01847 78.32398 36751 ft 382 kts 192°
2026-04-23 10:40 14.96041 78.31471 36750 ft 382 kts 192°
2026-04-23 10:41 14.90118 78.30525 36742 ft 383 kts 192°
2026-04-23 10:41 14.84602 78.29650 36746 ft 383 kts 192°
2026-04-23 10:42 14.78763 78.28717 36751 ft 383 kts 192°
2026-04-23 10:42 14.72873 78.27771 36755 ft 383 kts 192°
2026-04-23 10:43 14.67191 78.26859 36758 ft 383 kts 192°
2026-04-23 10:43 14.61196 78.25899 36764 ft 383 kts 192°
2026-04-23 10:44 14.55572 78.24999 36768 ft 383 kts 192°
2026-04-23 10:44 14.49684 78.24056 36770 ft 383 kts 192°
2026-04-23 10:45 14.43956 78.23140 36780 ft 385 kts 192°
2026-04-23 10:45 14.38053 78.22197 36786 ft 384 kts 192°
2026-04-23 10:46 14.32316 78.21280 36798 ft 384 kts 192°
2026-04-23 10:46 14.26524 78.20355 36809 ft 383 kts 192°
2026-04-23 10:47 14.20748 78.19436 36824 ft 383 kts 192°
2026-04-23 10:47 14.15022 78.18518 36847 ft 383 kts 193°
2026-04-23 10:48 14.09239 78.17518 36872 ft 383 kts 193°
2026-04-23 10:48 14.03580 78.16508 36899 ft 383 kts 193°
2026-04-23 10:49 13.97748 78.15467 36912 ft 384 kts 193°
2026-04-23 10:49 13.92348 78.14508 36841 ft 381 kts 193°
2026-04-23 10:50 13.89737 78.14046 36424 ft 377 kts 193°
2026-04-23 10:50 13.87151 78.13593 35771 ft 377 kts 193°
2026-04-23 10:50 13.84567 78.13140 35158 ft 375 kts 193°
2026-04-23 10:50 13.81988 78.12683 34497 ft 374 kts 194°
2026-04-23 10:51 13.79503 78.12013 33685 ft 371 kts 201°
2026-04-23 10:51 13.77130 78.10997 32509 ft 370 kts 207°
2026-04-23 10:51 13.74923 78.09689 31165 ft 375 kts 214°
2026-04-23 10:51 13.72769 78.08129 29896 ft 375 kts 216°
2026-04-23 10:52 13.70698 78.06593 28882 ft 370 kts 217°
2026-04-23 10:52 13.68613 78.05042 27843 ft 366 kts 217°
2026-04-23 10:52 13.66574 78.03519 26791 ft 363 kts 217°
2026-04-23 10:52 13.64533 78.01996 25723 ft 361 kts 217°
2026-04-23 10:53 13.62714 78.00273 24622 ft 359 kts 235°
2026-04-23 10:53 13.61496 77.98050 23615 ft 356 kts 242°
2026-04-23 10:53 13.60351 77.95828 22563 ft 354 kts 240°
2026-04-23 10:53 13.59126 77.93650 21516 ft 352 kts 239°
2026-04-23 10:54 13.57831 77.91502 20488 ft 350 kts 234°
2026-04-23 10:54 13.56169 77.89751 19484 ft 349 kts 216°
2026-04-23 10:54 13.54011 77.88603 18523 ft 347 kts 200°
2026-04-23 10:54 13.51756 77.87757 17564 ft 345 kts 203°
2026-04-23 10:55 13.49538 77.86790 16628 ft 344 kts 203°
2026-04-23 10:55 13.47368 77.85825 16047 ft 331 kts 204°
2026-04-23 10:55 13.45323 77.84893 15698 ft 313 kts 204°
2026-04-23 10:55 13.43369 77.83987 15345 ft 299 kts 204°
2026-04-23 10:56 13.41489 77.83106 14769 ft 295 kts 204°
2026-04-23 10:56 13.39636 77.82233 14144 ft 293 kts 204°
2026-04-23 10:56 13.37785 77.81360 13516 ft 292 kts 204°
2026-04-23 10:56 13.35950 77.80494 12904 ft 291 kts 204°
2026-04-23 10:57 13.34095 77.79620 12598 ft 285 kts 204°
2026-04-23 10:57 13.32329 77.78734 12420 ft 276 kts 213°
2026-04-23 10:57 13.31077 77.77330 12215 ft 268 kts 248°
2026-04-23 10:57 13.30775 77.75487 11990 ft 259 kts 274°
2026-04-23 10:58 13.30875 77.73608 11599 ft 260 kts 275°
2026-04-23 10:58 13.30967 77.71757 10995 ft 266 kts 274°
2026-04-23 10:58 13.31026 77.69832 10209 ft 276 kts 273°
2026-04-23 10:58 13.31060 77.67850 9543 ft 278 kts 272°
2026-04-23 10:59 13.31081 77.65882 8971 ft 276 kts 271°
2026-04-23 10:59 13.31096 77.63934 8415 ft 274 kts 271°
2026-04-23 10:59 13.31111 77.61983 7851 ft 272 kts 271°
2026-04-23 10:59 13.31125 77.60043 7325 ft 270 kts 271°
2026-04-23 11:00 13.31138 77.58091 7016 ft 266 kts 271°
2026-04-23 11:00 13.31151 77.56217 6947 ft 252 kts 272°
2026-04-23 11:00 13.31167 77.53934 6932 ft 233 kts 272°
2026-04-23 11:00 13.31176 77.52848 6935 ft 231 kts 272°
2026-04-23 11:01 13.31188 77.51200 6938 ft 230 kts 272°
2026-04-23 11:01 13.31201 77.49547 6941 ft 231 kts 272°
2026-04-23 11:01 13.31214 77.47890 6945 ft 232 kts 271°
2026-04-23 11:01 13.30919 77.46278 6962 ft 225 kts 239°
2026-04-23 11:02 13.29772 77.45264 6970 ft 210 kts 197°
2026-04-23 11:02 13.28418 77.44994 6949 ft 188 kts 182°
2026-04-23 11:02 13.27146 77.44872 6937 ft 179 kts 181°
2026-04-23 11:02 13.25860 77.44731 6948 ft 187 kts 184°
2026-04-23 11:03 13.24573 77.44540 6853 ft 188 kts 185°
2026-04-23 11:03 13.23350 77.44328 6767 ft 188 kts 185°
2026-04-23 11:03 13.22064 77.44385 6643 ft 179 kts 153°
2026-04-23 11:03 13.21148 77.45113 6549 ft 171 kts 120°
2026-04-23 11:04 13.20764 77.46235 6461 ft 166 kts 92°
2026-04-23 11:04 13.20740 77.47413 6406 ft 166 kts 88°
2026-04-23 11:04 13.20776 77.48570 6278 ft 159 kts 86°
2026-04-23 11:04 13.20809 77.49654 6164 ft 156 kts 87°
2026-04-23 11:05 13.20830 77.50764 6047 ft 155 kts 88°
2026-04-23 11:05 13.20839 77.51868 5932 ft 156 kts 89°
2026-04-23 11:05 13.20840 77.52966 5782 ft 148 kts 89°
2026-04-23 11:05 13.20836 77.53941 5597 ft 138 kts 89°
2026-04-23 11:06 13.20824 77.55916 5237 ft 138 kts 90°
2026-04-23 11:06 13.20817 77.56892 5031 ft 138 kts 90°
2026-04-23 11:06 13.20813 77.57847 4824 ft 138 kts 89°
2026-04-23 11:07 13.20816 77.58822 4649 ft 138 kts 89°
2026-04-23 11:07 13.20820 77.59811 4531 ft 139 kts 90°
2026-04-23 11:07 13.20805 77.60805 4377 ft 139 kts 91°
2026-04-23 11:07 13.20769 77.61762 4158 ft 139 kts 92°
2026-04-23 11:08 13.20750 77.62718 3988 ft 138 kts 90°
2026-04-23 11:08 13.20749 77.63734 3872 ft 139 kts 91°
2026-04-23 11:08 13.20733 77.64710 3748 ft 139 kts 92°
2026-04-23 11:08 13.20712 77.65669 3551 ft 139 kts 91°
2026-04-23 11:09 13.20698 77.66661 3367 ft 139 kts 92°
2026-04-23 11:09 13.20701 77.67653 3237 ft 138 kts 90°
2026-04-23 11:09 13.20715 77.68619 3072 ft 139 kts 91°
2026-04-23 11:09 13.20694 77.69524 2995 ft 126 kts 89°
2026-04-23 11:10 13.20692 77.70143 2986 ft 56 kts 90°
2026-04-23 11:10 13.20676 77.70459 2978 ft 37 kts 103°
2026-04-23 11:10 13.20617 77.70592 2973 ft 6 kts 121°
2026-04-23 11:10 13.20610 77.70604 2972 ft 1 kts 122°
2026-04-23 11:11 13.20601 77.70612 2972 ft 1 kts 149°
2026-04-23 11:11 13.20595 77.70616 2972 ft 1 kts 151°
2026-04-23 11:11 13.20582 77.70623 2971 ft 3 kts 152°
2026-04-23 11:11 13.20560 77.70636 2971 ft 4 kts 152°
2026-04-23 11:12 13.20528 77.70625 2972 ft 2 kts 248°
2026-04-23 11:12 13.20527 77.70614 2973 ft 2 kts 264°
2026-04-23 11:12 13.20525 77.70602 2973 ft 1 kts 265°
2026-04-23 11:12 13.20525 77.70595 2973 ft 1 kts 267°
2026-04-23 11:13 13.20524 77.70576 2974 ft 3 kts 269°
2026-04-23 11:13 13.20524 77.70547 2975 ft 4 kts 271°
2026-04-23 11:13 13.20526 77.70506 2976 ft 6 kts 272°
2026-04-23 11:13 13.20526 77.70461 2978 ft 7 kts 265°
2026-04-23 11:14 13.20501 77.70406 2980 ft 9 kts 213°
2026-04-23 11:14 13.20430 77.70391 2980 ft 12 kts 183°
2026-04-23 11:14 13.20341 77.70388 2979 ft 14 kts 177°
2026-04-23 11:14 13.20282 77.70448 2977 ft 15 kts 101°
2026-04-23 11:15 13.20271 77.70571 2975 ft 16 kts 92°
2026-04-23 11:15 13.20265 77.70694 2973 ft 17 kts 93°
2026-04-23 11:15 13.20258 77.70805 2970 ft 8 kts 94°
2026-04-23 11:15 13.20254 77.70840 2969 ft 5 kts 110°
2026-04-23 11:16 13.20218 77.70868 2969 ft 6 kts 150°
2026-04-23 11:16 13.20184 77.70876 2969 ft 2 kts 182°
2026-04-23 11:16 13.20172 77.70876 2970 ft 0 kts 180°
2026-04-23 11:16 13.20171 77.70876 2970 ft 0 kts 180°
2026-04-23 11:17 13.20170 77.70876 2970 ft 0 kts 180°
2026-04-23 11:17 13.20168 77.70876 2970 ft 0 kts 180°
2026-04-23 11:30 13.20171 77.70876 2968 ft 0 kts 180°
2026-04-23 11:30 13.20179 77.70876 2968 ft 1 kts 180°
2026-04-23 11:30 13.20190 77.70876 2969 ft 1 kts 180°
2026-04-23 11:31 13.20192 77.70876 2969 ft 0 kts 179°
2026-04-23 11:31 13.20194 77.70876 2969 ft 2 kts 179°
2026-04-23 11:32 13.20209 77.70876 2969 ft 2 kts 180°
2026-04-23 11:32 13.20223 77.70876 2969 ft 1 kts 180°
2026-04-23 11:32 13.20236 77.70876 2968 ft 2 kts 190°
2026-04-23 11:32 13.20250 77.70882 2968 ft 2 kts 220°
2026-04-23 11:33 13.20259 77.70894 2968 ft 2 kts 246°
2026-04-23 11:33 13.20262 77.70905 2967 ft 0 kts 267°
2026-04-23 11:33 13.20262 77.70914 2967 ft 0 kts 270°
2026-04-23 11:35 13.20262 77.70911 2967 ft 1 kts 269°
2026-04-23 11:35 13.20262 77.70887 2968 ft 5 kts 269°
2026-04-23 11:35 13.20261 77.70837 2969 ft 7 kts 269°
2026-04-23 11:36 13.20260 77.70780 2971 ft 8 kts 269°
2026-04-23 11:36 13.20260 77.70727 2972 ft 8 kts 270°
2026-04-23 11:36 13.20260 77.70654 2974 ft 10 kts 270°
2026-04-23 11:36 13.20260 77.70572 2975 ft 12 kts 270°
2026-04-23 11:37 13.20260 77.70479 2976 ft 13 kts 274°
2026-04-23 11:37 13.20284 77.70403 2977 ft 11 kts 322°
2026-04-23 11:37 13.20362 77.70386 2979 ft 10 kts
2026-04-23 11:37 13.20433 77.70390 2980 ft 10 kts
2026-04-23 11:38 13.20507 77.70386 2981 ft 10 kts 336°
2026-04-23 11:38 13.20532 77.70325 2983 ft 10 kts 269°
2026-04-23 11:38 13.20531 77.70245 2984 ft 11 kts 269°
2026-04-23 11:38 13.20531 77.70156 2986 ft 13 kts 272°
2026-04-23 11:39 13.20533 77.70057 2986 ft 15 kts 271°
2026-04-23 11:39 13.20534 77.69947 2986 ft 17 kts 270°
2026-04-23 11:39 13.20536 77.69810 2987 ft 19 kts 271°
2026-04-23 11:39 13.20536 77.69669 2987 ft 20 kts 270°
2026-04-23 11:40 13.20536 77.69522 2990 ft 20 kts 271°
2026-04-23 11:40 13.20538 77.69382 2992 ft 19 kts 270°
2026-04-23 11:40 13.20539 77.69261 2996 ft 13 kts 271°
2026-04-23 11:40 13.20582 77.69205 2997 ft 2 kts 352°
2026-04-23 11:41 13.20583 77.69205 2997 ft 0 kts 352°
2026-04-23 11:41 13.20588 77.69204 2997 ft 3 kts 353°
2026-04-23 11:42 13.20635 77.69202 2997 ft 9 kts 359°
2026-04-23 11:42 13.20700 77.69236 2998 ft 11 kts 58°
2026-04-23 11:42 13.20712 77.69319 2997 ft 12 kts 90°
2026-04-23 11:42 13.20709 77.69534 2994 ft 61 kts 90°
2026-04-23 11:43 13.20704 77.70179 2986 ft 120 kts 91°
2026-04-23 11:43 13.20694 77.71194 2943 ft 169 kts 91°
2026-04-23 11:43 13.20698 77.72440 3243 ft 181 kts 90°
2026-04-23 11:43 13.20737 77.73779 3666 ft 195 kts 88°
2026-04-23 11:44 13.20821 77.75182 4137 ft 207 kts 86°
2026-04-23 11:44 13.20955 77.76716 4387 ft 229 kts 85°
2026-04-23 11:44 13.20978 77.78320 4884 ft 231 kts 94°
2026-04-23 11:44 13.20834 77.80000 5181 ft 245 kts 94°
2026-04-23 11:45 13.20709 77.81817 5462 ft 261 kts 92°
2026-04-23 11:45 13.20633 77.83688 5918 ft 269 kts 91°
2026-04-23 11:45 13.20587 77.85578 6554 ft 269 kts 90°
2026-04-23 11:45 13.20546 77.87518 7173 ft 272 kts 93°